Track STARLINK-32241 now! 10-day predictions STARLINK-32241 is classified as:
1 60437U 24144N 24325.85086495 .00001413 00000-0 59839-4 0 9993 2 60437 53.1621 257.9759 0000799 7.1571 352.9441 15.30186388 16705